Station PORT2 - 8770475 - Port Arthur, TX Image indicating link to RSS feed of recent meteorological observations for station PORT2


Conditions at PORT2 as of
(1:48 pm CDT)
1848 GMT on 04/15/2024:
     

Click on the graph icon in the table below to see a time series plot of the last five days of that observation.

5-day plot - Wind Direction Wind Direction (WDIR):SSE ( 150 deg true )
5-day plot - Wind Speed Wind Speed (WSPD): 6.0 kts
5-day plot - Wind Gust Wind Gust (GST): 13.0 kts
5-day plot - Atmospheric Pressure Atmospheric Pressure (PRES):29.95 in
5-day plot - Air Temperature Air Temperature (ATMP): 75.7 °F
5-day plot - Water Temperature Water Temperature (WTMP): 70.2 °F
5-day plot - Wind Speed at 10 Meters Wind Speed at 10 meters (WSPD10M): 5.8 kts
5-day plot - Wind Speed at 20 Meters Wind Speed at 20 meters (WSPD20M): 7.8 kts
5-day plot -  Wind Speed, Wind Gust and Atmospheric Pressure Combined plot of Wind Speed, Gust, and Air Pressure
Previous observations
TIME
(CDT)
5-day plot - Wind Direction
WDIR
 
5-day plot - Wind Speed
WSPD
kts
5-day plot - Wind Gust
GST
kts
5-day plot - Wave Height
WVHT
ft
5-day plot - Dominant Wave Period
DPD
sec
5-day plot - Average Wave Period
APD
sec
5-day plot - Mean Wave Direction
MWD
 
5-day plot - Atmospheric Pressure
PRES
in
5-day plot - Pressure Tendency
PTDY
in
5-day plot - Air Temperature
ATMP
°F
5-day plot - Water Temperature
WTMP
°F
5-day plot - Dew Point
DEWP
°F
5-day plot - Salinity
SAL
psu
5-day plot - Visibility
VIS
nmi
5-day plot - Tide (above MLLW)
TIDE
ft
2024-04-15 01:42 pmSSE 7.0 12.0----29.95- 76.1 70.2----
2024-04-15 01:36 pmSSE 7.0 12.0----29.95- 75.9 70.2----
2024-04-15 01:30 pmSSE 11.1 15.9----29.95- 75.4 70.2----
2024-04-15 01:24 pmSSE 9.9 13.0----29.95- 75.4 70.0----
2024-04-15 01:18 pmSSE 8.0 13.0----29.95- 75.9 70.0----
2024-04-15 01:12 pmSSE 6.0 12.0----29.95- 75.9 70.0----
2024-04-15 01:06 pmSSE 8.0 12.0----29.95- 76.1 70.0----
2024-04-15 01:00 pmSSE 7.0 12.0----29.95-0.01 75.9 70.0----
2024-04-15 12:54 pm SE 6.0 12.0----29.95- 75.2 70.0----
2024-04-15 12:48 pmSSE 8.9 13.0----29.95- 75.6 69.8----
2024-04-15 12:42 pmSSE 8.0 12.0----29.95- 76.3 69.8----
2024-04-15 12:36 pmSSE 8.0 14.0----29.95- 76.6 69.8----
2024-04-15 12:30 pmSSE 8.0 13.0----29.95- 75.9 69.8----
2024-04-15 12:24 pmSSE 8.0 13.0----29.96- 75.6 69.8----
2024-04-15 12:18 pm SE 8.0 13.0----29.96- 75.7 69.8----
2024-04-15 12:12 pmSSE 8.0 11.1----29.96- 75.4 69.8----
2024-04-15 12:06 pmSSE 7.0 11.1----29.96- 75.9 69.8----
2024-04-15 12:00 pmSSE 7.0 14.0----29.96+0.02 75.4 69.6----
2024-04-15 11:54 am S 8.0 11.1----29.96- 75.0 69.6----
2024-04-15 11:48 am SE 8.0 11.1----29.96- 75.2 69.6----
2024-04-15 11:42 am SE 6.0 12.0----29.97- 75.6 69.6----
2024-04-15 11:36 amSSE 6.0 13.0----29.97- 76.1 69.6----
2024-04-15 11:30 amSSE 6.0 13.0----29.97- 75.9 69.6----
2024-04-15 11:24 amSSE 8.9 12.0----29.97- 75.6 69.6----
2024-04-15 11:18 amSSE 6.0 9.9----29.96- 75.0 69.6----
2024-04-15 11:12 amSSE 8.0 12.0----29.96- 74.5 69.4----
2024-04-15 11:06 amSSE 8.0 12.0----29.96- 75.4 69.4----
2024-04-15 11:00 amSSE 8.9 15.0----29.96+0.01 75.0 69.4----
2024-04-15 10:54 amSSE 5.1 11.1----29.96- 75.9 69.4----
2024-04-15 10:48 am SE 8.0 12.0----29.96- 74.7 69.4----
2024-04-15 10:42 am SE 8.0 15.9----29.96- 75.0 69.4----
2024-04-15 10:36 amSSE 8.0 14.0----29.96- 75.6 69.4----
2024-04-15 10:30 amSSE 8.9 14.0----29.95- 75.4 69.4----
2024-04-15 10:24 am S 8.9 14.0----29.95- 74.8 69.3----
2024-04-15 10:18 amSSE 8.0 13.0----29.96- 74.8 69.3----
2024-04-15 10:12 amSSE 8.0 11.1----29.96- 74.8 69.3----
2024-04-15 10:06 amSSE 8.0 13.0----29.96- 74.5 69.3----
2024-04-15 10:00 amSSE 8.0 13.0----29.96+0.02 74.5 69.3----
2024-04-15 09:54 amSSE 8.0 11.1----29.96- 74.3 69.3----
2024-04-15 09:48 amSSE 6.0 12.0----29.96- 74.1 69.3----
2024-04-15 09:42 am SE 7.0 11.1----29.95- 73.9 69.3----
2024-04-15 09:36 amSSE 7.0 11.1----29.95- 73.8 69.3----
2024-04-15 09:30 amSSE 6.0 11.1----29.95-- 69.3----
2024-04-15 09:24 amSSE 6.0 11.1----29.96-- 69.3----
2024-04-15 09:18 amSSE 5.1 12.0----29.96- 73.6 69.3----
2024-04-15 09:12 amSSE 6.0 12.0----29.96- 73.4 69.3----
2024-04-15 09:06 amSSE 5.1 8.0----29.95- 73.0 69.3----
2024-04-15 09:00 amSSE 7.0 11.1----29.95+0.03 73.0 69.3----
2024-04-15 08:54 amSSE 6.0 8.9----29.95- 73.0 69.3----
2024-04-15 08:48 amSSE 5.1 8.0----29.95- 73.0 69.3----
2024-04-15 08:42 amSSE 6.0 8.9----29.95- 73.0 69.3----
2024-04-15 08:36 amSSE 6.0 9.9----29.94- 72.9 69.3----
2024-04-15 08:30 amSSE 6.0 8.0----29.94- 72.5 69.3----
2024-04-15 08:24 am SE 5.1 8.0----29.95- 72.3 69.3----
2024-04-15 08:18 am SE 5.1 8.0----29.95- 72.1 69.1----
2024-04-15 08:12 amSSE 4.1 7.0----29.95- 72.1 69.1----
2024-04-15 08:06 am SE 2.9 8.0----29.95- 72.1 69.1----
2024-04-15 08:00 am SE 5.1 7.0----29.95+0.03 72.1 69.1----
2024-04-15 07:54 am SE 5.1 7.0----29.95- 72.1 69.1----
2024-04-15 07:48 am SE 4.1 5.1----29.95- 72.0 69.1----
2024-04-15 07:42 amSSE 2.9 6.0----29.95- 71.8 69.1----
2024-04-15 07:36 am SE 2.9 6.0----29.95- 71.8 69.1----
2024-04-15 07:30 amSSE 4.1 5.1----29.95- 71.8 69.1----
2024-04-15 07:24 amSSE 2.9 7.0----29.95- 71.8 69.1----
2024-04-15 07:18 am SE 4.1 6.0----29.94- 71.6 69.1----
2024-04-15 07:12 amSSE 4.1 6.0----29.94- 71.6 69.1----
2024-04-15 07:06 am SE 2.9 6.0----29.94- 71.4 69.1----
2024-04-15 07:00 amSSE 4.1 7.0----29.93+0.02 71.4 69.1----
2024-04-15 06:54 amSSE 4.1 6.0----29.93- 71.4 69.1----
2024-04-15 06:48 amSSE 2.9 5.1----29.93- 71.2 69.1----
2024-04-15 06:42 amSSE 2.9 6.0----29.93- 71.2 69.1----
2024-04-15 06:36 amSSE 4.1 6.0----29.93- 71.4 69.1----
2024-04-15 06:30 amSSE 4.1 7.0----29.93- 71.2 69.1----
2024-04-15 06:24 am S 4.1 8.0----29.92- 71.2 69.1----
2024-04-15 06:18 amSSE 4.1 6.0----29.92- 71.2 69.1----
2024-04-15 06:12 amSSE 4.1 6.0----29.92- 71.2 69.1----
2024-04-15 06:06 amSSE 5.1 7.0----29.92- 71.2 69.1----
2024-04-15 06:00 amSSE 5.1 7.0----29.92+0.00 71.2 69.1----
2024-04-15 05:54 amSSE 4.1 6.0----29.92- 71.2 69.1----
2024-04-15 05:48 amSSE 5.1 7.0----29.91- 71.2 69.1----
2024-04-15 05:42 amSSE 4.1 8.0----29.91- 71.1 69.1----
2024-04-15 05:36 amSSE 2.9 5.1----29.91- 70.9 69.1----
2024-04-15 05:30 am S 2.9 5.1----29.92- 70.9 69.1----
2024-04-15 05:24 amSSE 4.1 5.1----29.92- 70.9 69.1----
2024-04-15 05:18 am S 4.1 6.0----29.92- 70.9 69.1----
2024-04-15 05:12 am S 4.1 6.0----29.92- 71.1 69.1----
2024-04-15 05:06 am S 5.1 7.0----29.92- 71.1 69.1----
2024-04-15 05:00 amSSE 5.1 7.0----29.92-0.01 71.1 69.1----
2024-04-15 04:54 am S 4.1 6.0----29.91- 71.1 69.1----
2024-04-15 04:48 amSSE 5.1 7.0----29.91- 71.1 69.1----
2024-04-15 04:42 amSSE 5.1 6.0----29.91- 70.9 69.1----
2024-04-15 04:36 amSSE 4.1 6.0----29.92- 70.9 69.1----
2024-04-15 04:30 amSSE 4.1 6.0----29.92- 70.9 69.1----
2024-04-15 04:24 amSSE 4.1 7.0----29.92- 70.9 69.1----
2024-04-15 04:18 am S 5.1 8.0----29.92- 71.1 69.1----
2024-04-15 04:12 amSSE 5.1 8.9----29.91- 71.1 69.1----
2024-04-15 04:06 amSSE 5.1 9.9----29.91- 71.1 69.1----
2024-04-15 04:00 amSSE 6.0 9.9----29.91-0.04 70.9 69.1----
2024-04-15 03:54 amSSE 4.1 8.9----29.91- 70.9 69.1----
2024-04-15 03:48 amSSE 5.1 8.0----29.91- 70.9 69.3----
2024-04-15 03:42 am S 5.1 8.9----29.91- 70.7 69.3----
2024-04-15 03:36 amSSE 5.1 7.0----29.91- 70.5 69.3----
2024-04-15 03:30 amSSE 5.1 7.0----29.91- 70.3 69.3----
2024-04-15 03:24 amSSE 2.9 7.0----29.91- 70.2 69.3----
2024-04-15 03:18 am S 4.1 7.0----29.92- 70.2 69.3----
2024-04-15 03:12 amSSE 4.1 7.0----29.91- 70.2 69.3----
2024-04-15 03:06 am S 5.1 8.9----29.92- 70.2 69.3----
2024-04-15 03:00 amSSE 4.1 6.0----29.92-0.05 70.2 69.3----
2024-04-15 02:54 am S 4.1 6.0----29.92- 70.3 69.3----
2024-04-15 02:48 amSSE 4.1 8.0----29.92- 70.3 69.3----
2024-04-15 02:42 amSSE 5.1 8.0----29.92- 70.5 69.3----
2024-04-15 02:36 amSSE 5.1 7.0----29.92- 70.5 69.3----
2024-04-15 02:30 amSSE 5.1 8.0----29.92- 70.5 69.3----
2024-04-15 02:24 amSSE 6.0 8.9----29.92- 70.3 69.3----
2024-04-15 02:18 amSSE 5.1 6.0----29.92- 70.3 69.3----
2024-04-15 02:12 amSSE 5.1 8.9----29.93- 70.5 69.3----
2024-04-15 02:06 amSSE 5.1 8.0----29.93- 70.5 69.4----
2024-04-15 02:00 amSSE 6.0 8.9----29.93-0.06 70.7 69.3----
2024-04-15 01:54 amSSE 5.1 8.9----29.93- 70.5 69.4----
2024-04-15 01:48 amSSE 5.1 8.0----29.93- 70.5 69.4----
2024-04-15 01:42 amSSE 5.1 8.0----29.93- 70.5 69.4----
2024-04-15 01:36 amSSE 5.1 8.9----29.94- 70.7 69.4----
2024-04-15 01:30 amSSE 5.1 8.0----29.94- 70.7 69.4----
2024-04-15 01:24 amSSE 5.1 8.9----29.94- 70.7 69.4----
2024-04-15 01:18 amSSE 6.0 8.9----29.94- 70.7 69.4----
2024-04-15 01:12 amSSE 6.0 11.1----29.94- 70.7 69.4----
2024-04-15 01:06 amSSE 6.0 11.1----29.94- 70.7 69.6----
2024-04-15 01:00 amSSE 5.1 8.9----29.95-0.04 70.7 69.6----
2024-04-15 12:54 amSSE 5.1 9.9----29.96- 70.7 69.6----
2024-04-15 12:48 amSSE 5.1 11.1----29.96- 70.9 69.6----
2024-04-15 12:42 amSSE 5.1 8.9----29.96- 70.9 69.6----
2024-04-15 12:36 amSSE 6.0 11.1----29.96- 71.1 69.6----
2024-04-15 12:30 amSSE 5.1 9.9----29.96- 71.1 69.6----
2024-04-15 12:24 am SE 5.1 12.0----29.96- 71.1 69.6----
2024-04-15 12:18 amSSE 7.0 12.0----29.96- 71.1 69.6----
2024-04-15 12:12 amSSE 6.0 12.0----29.96- 71.1 69.6----
2024-04-15 12:06 amSSE 7.0 13.0----29.96- 71.1 69.8----
2024-04-15 12:00 amSSE 8.0 12.0----29.97-0.02 71.1 69.8----
2024-04-14 11:54 pmSSE 7.0 11.1----29.97- 71.1 69.8----
2024-04-14 11:48 pmSSE 7.0 12.0----29.97- 71.2 69.8----
2024-04-14 11:42 pm SE 6.0 9.9----29.97- 71.1 69.8----
2024-04-14 11:36 pmSSE 8.0 11.1----29.97- 71.2 69.8----
2024-04-14 11:30 pmSSE 7.0 11.1----29.98- 71.2 69.8----
2024-04-14 11:24 pmSSE 7.0 11.1----29.98- 71.2 69.8----
2024-04-14 11:18 pm SE 7.0 11.1----29.98- 71.2 69.8----
2024-04-14 11:12 pm SE 7.0 11.1----29.98- 71.4 69.8----
2024-04-14 11:06 pmSSE 8.0 12.0----29.99- 71.4 69.8----
2024-04-14 11:00 pmSSE 7.0 11.1----29.99+0.00 71.4 69.8----
2024-04-14 10:54 pmSSE 6.0 11.1----29.99- 71.4 69.8----
2024-04-14 10:48 pmSSE 6.0 12.0----29.99- 71.4 69.8----
2024-04-14 10:42 pmSSE 7.0 11.1----29.99- 71.6 70.0----
2024-04-14 10:36 pmSSE 6.0 9.9----29.99- 71.6 70.0----
2024-04-14 10:30 pm SE 8.0 13.0----29.99- 71.8 70.0----
2024-04-14 10:24 pmSSE 8.0 13.0----29.99- 71.8 70.0----
2024-04-14 10:18 pmSSE 7.0 12.0----29.99- 71.8 70.0----
2024-04-14 10:12 pmSSE 8.0 14.0----29.99- 72.0 70.0----
2024-04-14 10:06 pmSSE 8.9 13.0----29.99- 72.0 70.0----
2024-04-14 10:00 pm SE 8.9 13.0----29.99+0.00 72.0 70.0----
2024-04-14 09:54 pmSSE 7.0 12.0----29.99- 72.0 70.0----
2024-04-14 09:48 pm SE 8.0 12.0----29.99- 72.1 70.0----
2024-04-14 09:42 pm SE 7.0 11.1----29.99- 72.1 70.0----
2024-04-14 09:36 pm SE 9.9 13.0----29.98- 72.1 70.0----
2024-04-14 09:30 pmSSE 8.0 13.0----29.99- 72.1 70.0----
2024-04-14 09:24 pm SE 8.9 13.0----29.98- 72.1 70.0----
2024-04-14 09:18 pm SE 8.0 11.1----29.99- 72.1 70.0----
2024-04-14 09:12 pm SE 7.0 13.0----29.99- 72.1 70.0----
2024-04-14 09:06 pm SE 8.9 13.0----29.98- 72.1 70.0----
2024-04-14 09:00 pm SE 7.0 14.0----29.98-0.01 72.1 70.0----
2024-04-14 08:54 pm SE 6.0 9.9----29.98- 72.1 70.0----
2024-04-14 08:48 pm SE 8.0 14.0----29.98- 72.1 70.0----
2024-04-14 08:42 pm SE 8.0 11.1----29.98- 72.1 70.0----
2024-04-14 08:36 pm SE 7.0 14.0----29.98- 72.1 70.0----
2024-04-14 08:30 pmSSE 8.0 14.0----29.98- 72.1 70.0----
2024-04-14 08:24 pm SE 8.0 15.0----29.98- 72.1 70.0----
2024-04-14 08:18 pm SE 7.0 12.0----29.98- 72.1 70.0----
2024-04-14 08:12 pmSSE 6.0 8.9----29.98- 72.3 70.2----
2024-04-14 08:06 pm SE 5.1 8.9----29.99- 72.1 70.2----
2024-04-14 08:00 pmSSE 7.0 12.0----29.98-0.01 72.1 70.2----
2024-04-14 07:54 pm SE 7.0 11.1----29.99- 72.3 70.2----
2024-04-14 07:48 pmSSE 6.0 12.0----29.99-- 70.2----
2024-04-14 07:42 pmSSE 7.0 11.1----29.99-- 70.2----
2024-04-14 07:36 pmSSE 6.0 11.1----29.99-- 70.2----
2024-04-14 07:30 pm-------29.98- 72.5 70.2----
2024-04-14 07:24 pm-------29.98- 72.5 70.2----
2024-04-14 07:18 pmSSE 7.0 9.9------ 72.7 70.2----
2024-04-14 07:12 pmSSE 6.0 12.0------ 72.7 70.2----
2024-04-14 07:06 pmSSE 6.0 9.9------ 72.9 70.2----
2024-04-14 07:00 pmSSE 5.1 11.1----29.99-0.02 73.0 70.2----
2024-04-14 06:54 pmSSE 8.0 11.1----29.99- 73.0 70.2----
2024-04-14 06:48 pmSSE 7.0 12.0----29.99- 72.9 70.2----
2024-04-14 06:42 pmSSE 6.0 9.9----29.99- 73.2 70.2----
2024-04-14 06:36 pmSSE 6.0 9.9----29.99- 73.2 70.2----
2024-04-14 06:30 pmSSE 7.0 13.0----29.99- 73.4 70.2----
2024-04-14 06:24 pmSSE 8.0 13.0----29.99- 73.6 70.2----
2024-04-14 06:00 pm S 7.0 12.0----29.99-0.04- 70.2----
2024-04-14 05:54 pmSSE 5.1 12.0----29.99-- 70.2----
2024-04-14 05:48 pmSSE 7.0 11.1----29.99- 73.9 70.2----
2024-04-14 05:42 pmSSE 7.0 11.1----30.00- 73.9 70.2----
2024-04-14 05:36 pmSSE 7.0 12.0----30.00- 73.9 70.2----
2024-04-14 05:30 pmSSE 8.9 13.0----30.00- 73.9 70.2----
2024-04-14 05:24 pm S 8.0 13.0----29.99- 74.1 70.2----
2024-04-14 05:18 pmSSE 7.0 13.0----29.99- 74.3 70.2----
2024-04-14 05:12 pmSSE 8.0 15.0----30.00- 74.3 70.2----
2024-04-14 05:06 pmSSE 8.0 11.1----30.00- 74.1 70.2----
2024-04-14 05:00 pmSSE 8.0 13.0----30.00-0.07 74.3 70.2----
2024-04-14 04:54 pmSSE 9.9 14.0----30.00- 74.3 70.2----
2024-04-14 04:48 pmSSE 8.0 13.0----30.00-- 70.2----
2024-04-14 04:42 pmSSE 8.0 13.0----30.01-- 70.2----
2024-04-14 04:36 pmSSE 8.0 12.0----30.00-- 70.2----
2024-04-14 04:30 pmSSE 5.1 13.0----30.00-- 70.2----
2024-04-14 04:24 pmSSE 8.0 13.0----30.00-- 70.2----
2024-04-14 04:18 pmSSE 8.9 12.0----30.01- 74.7 70.2----
2024-04-14 04:12 pmSSE 7.0 14.0----30.01- 74.8 70.2----
2024-04-14 04:06 pmSSE 8.0 12.0----30.01- 74.7 70.2----
2024-04-14 04:00 pmSSE 11.1 18.1----30.01-0.08 75.2 70.2----
2024-04-14 03:54 pmSSE 8.9 15.0----30.01- 74.7 70.2----
2024-04-14 03:48 pm SE 8.0 12.0----30.01- 75.0 70.2----
2024-04-14 03:42 pmSSE 8.0 12.0----30.02- 75.0 70.2----
2024-04-14 03:36 pmSSE 8.0 12.0----30.02- 75.0 70.2----
2024-04-14 03:30 pmSSE 8.0 14.0----30.02- 75.2 70.2----
2024-04-14 03:24 pmSSE 8.9 13.0----30.03- 75.4 70.2----
2024-04-14 03:18 pmSSE 8.0 14.0----30.03- 75.4 70.2----
2024-04-14 03:12 pmSSE 8.9 13.0----30.03- 74.8 70.2----
2024-04-14 03:06 pm SE 8.9 17.1----30.03- 75.0 70.2----
2024-04-14 03:00 pm SE 9.9 15.0----30.04-0.06 75.7 70.2----
2024-04-14 02:54 pmSSE 8.0 15.9----30.04- 75.7 70.2----
2024-04-14 02:48 pmSSE 9.9 14.0----30.05- 75.9 70.2----
2024-04-14 02:42 pmSSE 8.9 14.0----30.05- 75.6 70.0----
2024-04-14 02:36 pmSSE 8.0 14.0----30.06- 75.9 70.0----
2024-04-14 02:30 pmSSE 8.0 13.0----30.06- 75.4 70.0----
2024-04-14 02:24 pm S 9.9 14.0----30.06- 76.1 70.0----
2024-04-14 02:18 pm S 9.9 15.9----30.06- 75.7 69.8----
2024-04-14 02:12 pmSSE 9.9 14.0----30.06- 75.7 69.8----
2024-04-14 02:06 pm S 11.1 15.0----30.06- 75.0 69.8----
2024-04-14 02:00 pm S 7.0 13.0----30.07-0.03------
2024-04-14 01:54 pm S 9.9 15.0----30.07-------